Regional Weather Roundup
Issued by NWS Upton, NY

Current Version | Previous Version | Text Only | Print | Product List | Glossary Off
Versions: 1 2 3 4 5 6 7 8 9 10 11 12 13 14 15 16 17 18 19 20 21 22 23 24 25 26 27 28 29 30 31 32 33 34 35 36 37 38 39 40 41 42 43 44 45 46 47 48 49 50
963 ASUS41 KOKX 061904 RWROKX REGIONAL WEATHER ROUNDUP NATIONAL WEATHER SERVICE NEW YORK NY 200 PM EST SAT FEB 06 2016 NOTE: "FAIR" INDICATES FEW OR NO CLOUDS BELOW 12,000 FEET WITH NO SIGNIFICANT WEATHER AND/OR OBSTRUCTIONS TO VISIBILITY. NYZ071-072-176-178-NJZ106-104-062000- NEW YORK CITY METRO AREA CITY SKY/WX TMP DP RH WIND PRES REMARKS CENTRAL PARK PTSUNNY 38 18 44 VRB6 30.34F WCI 33 LAGUARDIA APRT PTSUNNY 40 21 46 SW9 30.33F WCI 34 KENNEDY INTL PTSUNNY 37 22 54 SW8 30.35F WCI 31 NEWARK/LIBERTY PTSUNNY 39 22 50 S9 30.33F WCI 33 BRNX BOT. GARD N/A 39 21 48 SW12 30.33R WCI 32 TETERBORO MOSUNNY 40 18 41 S12 30.32F WCI 33 $$ NYZ177-179-078>081-062000- LONG ISLAND NEW YORK CITY SKY/WX TMP DP RH WIND PRES REMARKS FARMINGDALE CLOUDY 37 22 54 SW13 30.34F WCI 29 ISLIP PTSUNNY 36 23 59 SW12 30.33F WCI 28 SHIRLEY CLOUDY 36 24 62 SW8 30.35F WCI 30 RIVERHEAD N/A 39 25 56 NW6 30.36S WCI 35 WESTHAMPTON MOSUNNY 36 24 62 SW9G18 30.36F WCI 29 EAST HAMPTON SUNNY 36 21 55 VRB5 30.34F WCI 32 MONTAUK POINT N/A 37 25 61 SW7 30.35F WCI 32 $$ NYZ052-065-067-062000- HUDSON VALLEY CITY SKY/WX TMP DP RH WIND PRES REMARKS WHITE PLAINS MOSUNNY 38 17 42 SW8 30.29F WCI 32 NEWBURGH MOSUNNY 41 18 38 SW12 30.26F MONTGOMERY MOSUNNY 42 19 39 SW16G22 30.24F POUGHKEEPSIE SUNNY 42 15 33 SW10 30.26F ALBANY CLOUDY 40 17 39 S10G21 30.20F WCI 33 $$ NJZ001-105-106-008-010-013-015-019>022-104-062000- NEW JERSEY CITY SKY/WX TMP DP RH WIND PRES REMARKS NEWARK/LIBERTY PTSUNNY 39 22 50 S9 30.33F WCI 33 TETERBORO MOSUNNY 40 18 41 S12 30.32F WCI 33 CALDWELL SUNNY 40 16 37 VRB7 30.31F MORRISTOWN PTSUNNY 39 19 45 SW13 30.32F WCI 32 SOMERVILLE MOSUNNY 39 18 42 SW7 30.31F WCI 34 SUSSEX SUNNY 41 16 36 SW13G20 30.26F ANDOVER N/A 39 17 41 SW13G18 30.28F WCI 31 TRENTON MOSUNNY 39 19 44 SW9G17 30.32F WCI 33 MILLVILLE MOSUNNY 40 22 48 VRB6 30.36F ATLANTIC CITY MOSUNNY 41 22 46 SW8 30.36F WRIGHTSTOWN PTSUNNY 40 23 50 SW6 30.31F TOMS RIVER MOSUNNY 39 21 48 W8 30.35F WCI 34 BELMAR MOSUNNY 39 18 41 S7 30.33F WCI 34 $$ PAZ047>061-062-071-062000- EASTERN PENNSYLVANIA CITY SKY/WX TMP DP RH WIND PRES REMARKS PHILADELPHIA PTSUNNY 42 18 37 SW9 30.35F ALLENTOWN SUNNY 42 20 41 SW10 30.30F SCRANTON MOSUNNY 41 19 41 SW10 30.21F $$ CTZ002-004>006-009-010-012-RIZ004-006-007-MAZ004-011-015-062000- SOUTHERN NEW ENGLAND IN CT CITY SKY/WX TMP DP RH WIND PRES REMARKS BRADLEY INTL PTSUNNY 37 19 48 S15G23 30.27F WCI 28 HARTFORD SUNNY 38 21 50 S10G17 30.30F WCI 31 DANBURY SUNNY 37 15 40 S9 30.30F WCI 30 WTRBRY/OXFORD MOSUNNY 37 16 41 SW8 30.29F WCI 31 BRIDGEPORT CLOUDY 37 23 56 SW8 30.33F WCI 31 MERIDEN MOSUNNY 37 22 54 S9 30.31F WCI 30 NEW HAVEN MOSUNNY 36 23 59 SW8 30.33F WCI 30 CHESTER FAIR 34 23 64 SW7G20 30.31F WCI 28 GROTON MOSUNNY 35 22 58 SW13 30.33F WCI 26 WILLIMANTIC MOSUNNY 36 21 54 S10 30.31F WCI 28 IN RI CITY SKY/WX TMP DP RH WIND PRES REMARKS PROVIDENCE PTSUNNY 35 22 58 SW8 30.33F WCI 29 BLOCK ISLAND CLOUDY 36 25 64 SW10 30.33F WCI 28 WESTERLY MOSUNNY 35 22 58 SW8G18 30.34F WCI 29 IN MA CITY SKY/WX TMP DP RH WIND PRES REMARKS BOSTON PTSUNNY 34 25 69 SW12 30.30F WCI 25 WORCESTER N/A 33 17 51 S14 30.23F WCI 23 WESTFIELD SUNNY 37 21 52 S14 30.25F WCI 28 PROVINCETOWN MOSUNNY 34 23 64 SW13 30.32F WCI 25 NANTUCKET MOSUNNY 35 23 61 SW12 30.35S WCI 27 $$ ANZ330-335-338-340-345-350-353-355-062000- COASTAL MARINE OBSERVATIONS STATION/POSITION TIME SKY/WX TEMP WIND PRES VSBY WAVE AIR SEA DIR/SP/G HT/PER (UTC) (F) (DEG/KT/KT) (MB) (MI) (FT/S) NY HARB ENTRANCE 1750 37 44 210/ 12/ 16 1028.2 2/ 9 4S FIRE IS NOT AVBL 20S FIRE ISLAND 1750 36 45 240/ 10/ 12 1028.9 2/10 GREAT SOUTH BAY NOT AVBL 23SW MTP 1850 38 46 230/ 12/ 16 1027.3 3/ 9 HUDSON CANYON 1750 41 51 1029.1 3/ 9 KINGS POINT 1800 37 40 240/ 9/ 12 1027.3 EXECUTION ROCKS NOT AVBL CENTRAL LI SOUND 1800 35 210/ 12/ 14 N/A 1/ 2 EASTERN LI SOUND 1800 36 42 220/ 12/ 16 N/A ROBBINS REEF 1800 37 230/ 9/ 13 1027.2 $$ >>>>>>>>>>>>>>>>>>>>>>>>>>>> KEY <<<<<<<<<<<<<<<<<<<<<<<<<<< > < > SKY/WX - SKY CONDITION/PRESENT WEATHER < > TMP - TEMPERATURE IN FAHRENHEIT < > DP - DEWPOINT IN FAHRENHEIT < > RH - RELATIVE HUMIDITY IN PERCENT < > WIND - DIRECTION AND SPEED IN MPH < > PRES - MEAN SEA LEVEL PRESSURE IN INCHES OF HG < > WCI - WIND CHILL INDEX < > VSB - VISIBILITY IN MILES < > HX - HEAT INDEX < > TC - TEMPERATURE IN CELSIUS < > VRB - VARIABLE WIND DIRECTION < > < >>>>>>>>>>>>>>>>>>>>>>>>>>>> KEY <<<<<<<<<<<<<<<<<<<<<<<<<<<

USA.gov is the U.S. government's official web portal to all federal, state and local government web resources and services.